User: anonymous   Login
Location: Zagreb
(45.8000°N, 16.0000°E)
Time: 19:02:01
(UTC+02:00)
Language:

S-56A Canister/Altair - Orbit

View from above orbital plane
View from above orbital plane
View from above satellite
View from above satellite

Ground track
Ground track

The orbit data is extracted from the following two-line orbital elements,

1    82U 61004B   20221.87061026 -.00000039 +00000-0 +66024-5 0  9994
2    82 038.8618 004.3001 1174617 336.5413 018.5629 12.26061884814244
Epoch (UTC): 08 August 2020 20:53:40
Eccentricity: 0.1174617
inclination: 38.8618°
perigee height: 633 km
apogee height: 2499 km
right ascension of ascending node: 4.3001°
argument of perigee: 336.5413°
revolutions per day: 12.26061884
mean anomaly at epoch: 18.5629°
orbit number at epoch: 81424

The dashed part of the orbit path shows where the satellite is in the earth's shadow,  

DLR